Location: Waco, TX
(31.5480°N, 97.1670°W)
Time: 11:03:11
(UTC-05:00)

ISS - Pass Details

Date: 19 May 2018
Orbit: 402 x 407 km, 51.6° (Epoch: 23 May)

Event Time Altitude Azimuth Distance (km) Brightness Sun altitude
Rises 23:57:41 0° 273° (W) 2,310 - -34.6°
Reaches altitude 10° 00:01:12 10° 313° (NW) 1,453 - -34.9°
Maximum altitude 00:02:04 11° 329° (NNW) 1,408 - -35.0°
Drops below altitude 10° 00:02:56 10° 344° (NNW) 1,454 - -35.0°
Sets 00:06:27 0° 25° (NNE) 2,315 - -35.3°
